Regional Weather Roundup
Issued by NWS Memphis, TN

Home | Current Version | Previous Version | Text Only | Print | Product List | Glossary On
Versions: 1 2 3 4 5 6 7 8 9 10 11 12 13 14 15 16 17 18 19 20 21 22 23 24 25 26 27 28 29 30 31 32 33 34 35 36 37 38 39 40 41 42 43 44 45 46 47 48 49 50
000
ASUS44 KMEG 271510
RWRMEG
MEMPHIS CWA HOURLY WEATHER ROUNDUP
NATIONAL WEATHER SERVICE MEMPHIS TN
900 AM CST TUE JAN 27 2015

...WEST TENNESSEE...

CITY           SKY/WX    TMP DP  RH WIND       PRES   REMARKS
MEMPHIS INTL   SUNNY     49  36  61 N8G21     30.10R
NWS MEMPHIS      N/A     45 N/A N/A MISG        N/A
JACKSON        SUNNY     42  35  76 N13       30.08R
LEXINGTON      SUNNY     39  34  81 N13       30.05R WCI  32
SAVANNAH       SUNNY     41  37  87 N9        30.06R
DYERSBURG      SUNNY     43  27  52 N12       30.11R
UNION CITY     SUNNY     36  36 100 N12       30.08R WCI  27
PARIS          CLOUDY    34  30  86 N6        30.07R WCI  29


...EASTERN ARKANSAS...

CITY           SKY/WX    TMP DP  RH WIND       PRES   REMARKS
JONESBORO      SUNNY     45  37  73 N7        30.12R
WEST MEMPHIS   SUNNY     47  38  71 N7        30.11R
BATESVILLE     SUNNY     48  36  61 NW3       30.15R
NEWPORT        SUNNY     47  37  68 NW8       30.16R
WALNUT RIDGE   SUNNY     45  36  70 NW9       30.14R
BLYTHEVILLE    SUNNY     45  39  79 N17       30.11R
NW BLYTHEVILLE SUNNY     43  37  81 N8        30.11R
SEARCY         SUNNY     50  38  63 N5        30.16R
STUTTGART      SUNNY     50  39  66 N12       30.14R
PINE BLUFF     SUNNY     49  38  65 N5        30.14R
MONTICELLO     SUNNY     53  38  56 VRB5      30.13R


...NORTH MISSISSIPPI...

CITY           SKY/WX    TMP DP  RH WIND       PRES   REMARKS
TUPELO         SUNNY     47  35  63 N10       30.07R
OXFORD         SUNNY     45  36  70 N12       30.11R
OLIVE BRANCH   SUNNY     45  39  81 N12G20    30.10R
TUNICA         SUNNY     48  37  66 NW12      30.13R
CLARKSDALE     SUNNY     48  39  71 NW8       30.13R
CORINTH        SUNNY     43  36  75 NW7       30.06R
GRENADA        SUNNY     48  37  66 N9G16     30.11R
GREENWOOD      SUNNY     47  40  76 CALM      30.11R
COLUMBUS       SUNNY     47  37  68 NW9       30.08R
STARKVILLE     FAIR      50  37  62 NW5       30.08R
GOLDEN TRIANGL SUNNY     46  37  71 NW7       30.06R


...SOUTHEAST MISSOURI...

CITY           SKY/WX    TMP DP  RH WIND       PRES   REMARKS
WEST PLAINS    SUNNY     42  33  70 N10       30.12R
POPLAR BLUFF   CLOUDY    40  34  79 NW3       30.12R
CAPE GIRARDEAU PTSUNNY   39  35  86 NW9       30.11R WCI  33


...NORTHWEST ALABAMA...

CITY           SKY/WX    TMP DP  RH WIND       PRES   REMARKS
MUSCLE SHOALS  SUNNY     42  33  70 NW9       30.05R


...MIDDLE TENNESSEE...

CITY           SKY/WX    TMP DP  RH WIND       PRES   REMARKS
NASHVILLE      PTSUNNY   38  32  79 NW10      30.03R WCI  31
CLARKSVILLE    MOSUNNY   38  33  82 NW14      30.04R WCI  30
COLUMBIA       SUNNY     39  39 100 VRB7      30.01R WCI  34


...WESTERN KENTUCKY...

CITY           SKY/WX    TMP DP  RH WIND       PRES   REMARKS
PADUCAH        PTSUNNY   38  33  82 N5        30.09R WCI  34
FORT CAMPBELL  MOSUNNY   37  32  83 NW9       30.04R WCI  30


...CENTRAL ARKANSAS...

CITY           SKY/WX    TMP DP  RH WIND       PRES   REMARKS
LITTLE ROCK    SUNNY     53  37  54 N7        30.15R


SKY/WX REPORTED AS FAIR MEANS FEW OR NO CLOUDS BELOW
12 THOUSAND FEET.



USA.gov is the U.S. government's official web portal to all federal, state and local government web resources and services.